Other Public Products
Issued by NWS Grand Forks, ND

Home | Current Version | Previous Version | Text Only | Print | Product List | Glossary Off
Versions: 1 2 3 4 5 6 7 8 9 10 11 12 13 14 15 16 17 18 19 20 21 22 23 24 25 26 27 28 29 30 31 32 33 34 35 36 37 38 39 40 41 42 43 44 45 46 47 48 49 50

782
FPUS83 KFGF 291710
OPUFGF
PRAIRIE TO PINES WEATHER ROUNDUP
NATIONAL WEATHER SERVICE EASTERN NORTH DAKOTA/GRAND FORKS ND
1200 PM CDT SUN MAY 29 2016

 **SATELLITE DATA USED TO AUGMENT SKY COVER AT AUTOMATED STATIONS**
 *****  WEATHER ACROSS EASTERN NORTH DAKOTA  *****

CITY           SKY/WX    TMP DP  RH WIND       PRES   REMARKS
GRAND FORKS    PTSUNNY   68  58  70 N10       29.93S
GRAND FORKS AF MOSUNNY   66  57  71 N12       29.94S
GRAND CITY NWS   N/A     64 N/A N/A N7          N/A
BUXTON           N/A     69  64  82 NW6         N/A
DEVILS LAKE    MOSUNNY   69  50  50 W18       29.96S
FARGO          PTSUNNY   70  57  63 N10       29.95S
WAHPETON ARPT  PTSUNNY   70  55  60 NW9       29.97S
$$

 *****  WEATHER ACROSS CENTRAL AND WESTERN NORTH DAKOTA  *****

CITY           SKY/WX    TMP DP  RH WIND       PRES   REMARKS
JAMESTOWN      SUNNY     71  47  42 NW14G25   29.98S
BISMARCK       SUNNY     72  45  37 NW9       30.02F
MINOT          SUNNY     74  39  28 W16       29.97S
MINOT AFB      SUNNY     69  44  40 NW10G21   29.96S
GARRISON         N/A     71  40  32 W14G23    30.01R
WILLISTON      SUNNY     70  38  31 SW13      30.01S
DICKINSON      SUNNY     68  40  35 VRB6      30.02F
HETTINGER      SUNNY     69  49  48 VRB3      30.06F
$$

 *****  OTHER OBSERVATIONS NORTHEAST NORTH DAKOTA  *****

CITY           SKY/WX    TMP DP  RH WIND       PRES   REMARKS
WALHALLA       FAIR      63  59  88 N12       29.93S
LANGDON        FAIR      66  57  72 NW14      29.95R
CAVALIER       CLOUDY    63  55  77 NW9       29.93S
GRAFTON        CLOUDY    64  59  82 NW8       29.95S
CANDO          NOT AVBL
FORT TOTTEN      N/A     71  54  54 NW7       29.95S
ROLLA          FAIR      66  43  42 NW15G25   29.95S
RUGBY          FAIR      66  50  55 W13G21    29.96S
 ***** THE ABOVE OBSERVATIONS ARE NON NWS ARE NOT QUALITY
        CONTROLLED AND MAY MIS-REPORT RAIN FOR SNOW...
$$

 *****  OTHER OBSERVATIONS SOUTHEAST NORTH DAKOTA *****

CITY           SKY/WX    TMP DP  RH WIND       PRES   REMARKS
COOPERSTOWN    NOT AVBL
VALLEY CITY    FAIR      70  54  56 NW15G21   30.00R
OAKES            N/A    N/A N/A N/A MISG        N/A
GWINNER        FAIR      72  55  56 NW16      30.00R
SHEYENNE NWR     N/A     70  59  68 NW9       29.95S
BUFFALO          N/A     69  49  47 NW13        N/A
WYNDMERE         N/A     72  57  60 NW12        N/A
 ***** THE ABOVE OBSERVATIONS ARE NON NWS ARE NOT QUALITY
       CONTROLLED AND MAY MIS-REPORT RAIN FOR SNOW...
$$

  *****  WEATHER ACROSS NORTHERN MINNESOTA  *****

CITY           SKY/WX    TMP DP  RH WIND       PRES   REMARKS
FLAG ISLAND    CLOUDY    55  52  88 NW14      29.87R
WARROAD        CLOUDY    59  55  88 W10       29.90R
ROSEAU         MOSUNNY   61  55  82 NW10G16   29.90S
HALLOCK        PTSUNNY   63  57  82 NW10      29.92S
THF RVR FALLS  CLOUDY    63  54  72 NW12      29.94S
HALSTAD        NOT AVBL
FOSSTON        CLOUDY    61  55  82 NW8       29.95S
BAUDETTE       CLOUDY    58  54  86 NW12      29.88R
WASKISH        CLOUDY    61  55  82 W8        29.90R
CROOKSTON      CLOUDY    63  55  77 NW9       29.95S
$$
  *****  WEATHER ACROSS CENTRAL AND WEST MINNESOTA  *****

CITY           SKY/WX    TMP DP  RH WIND       PRES   REMARKS
BEMIDJI        CLOUDY    60  55  82 NW10G17   29.93R
PARK RAPIDS    CLOUDY    65  55  70 NW15G23   29.95R
WADENA         PTSUNNY   64  57  77 W12G17    29.95S
DETROIT LAKES  CLOUDY    64  55  72 NW12      29.98R
MOORHEAD       MOSUNNY   66  59  77 N8        29.97S
FERGUS FALLS   MOSUNNY   70  57  64 N15       29.94S
ELBOW LAKE     PTSUNNY   69  58  65 NW12      29.98S
MORRIS MN      MOSUNNY   72  61  68 W9        29.97S
STAPLES        CLOUDY    63  55  77 W10G17    29.96R
WHEATON        MOSUNNY   73  59  60 W14       29.99S
$$
  *****  WEATHER ELSEWHERE ACROSS MINNESOTA  *****

CITY           SKY/WX    TMP DP  RH WIND       PRES   REMARKS
DULUTH         CLOUDY    63  56  78 W15G22    29.85R
INTRNTL FALLS  CLOUDY    58  54  86 NW9       29.85R
ELY            CLOUDY    59  55  88 W15       29.81S
CLOQUET        CLOUDY    63  55  77 W15       29.87R
BRAINERD       CLOUDY    64  56  75 W8        29.94S
HIBBING        CLOUDY    59  54  83 NW12G18   29.85S
ALEXANDRIA     PTSUNNY   68  56  65 W13G22    29.98S
SAINT CLOUD    PTSUNNY   70  58  65 NW13      29.95S
MINNEAPOLIS    PTSUNNY   73  57  57 NW12G23   29.95R
$$

  *****  WEATHER ACROSS SOUTH DAKOTA  *****

CITY           SKY/WX    TMP DP  RH WIND       PRES   REMARKS
SIOUX FALLS    MOSUNNY   73  59  61 W10       30.06R
BROOKINGS      SUNNY     70  57  63 W14       30.04S
WATERTOWN      SUNNY     71  55  56 W13       30.03R
HURON          SUNNY     73  56  54 NW7       30.05R
SISSETON         N/A     74  54  49 NW14G24   29.97S
ABERDEEN       SUNNY     76  45  33 N14G23    30.02R
MITCHELL       SUNNY     73  57  57 NW7       30.07S
PIERRE         SUNNY     71  52  50 VRB3      30.06S
MOBRIDGE       SUNNY     72  50  45 VRB5      30.03S
RAPID CITY     PTSUNNY   69  50  50 SE7       30.10S
$$

  *****  SOME WEATHER IN NEARBY STATES *****

CITY           SKY/WX    TMP DP  RH WIND       PRES   REMARKS
GLASGOW MT     SUNNY     64  42  44 SW5       29.99F
GREAT FALLS MT MOSUNNY   64  34  32 SW15      30.00F
CHEYENNE WY    SUNNY     69  36  29 S12       30.19S
SCOTTSBLUFF NE SUNNY     69  50  50 S5        30.12F
OMAHA NE       MOSUNNY   76  58  53 S5        30.09S
DES MOINES IA  MOSUNNY   77  59  53 SW9       30.08S
DAVENPORT IA   MOSUNNY   74  61  63 W13       30.06S
CHICAGO IL     PTSUNNY   75  61  61 W17G23    30.01R
EAU CLAIRE WI  LGT RAIN  66  60  81 W13       29.92R
LA CROSSE WI   MOSUNNY   75  60  59 W12       29.96R
$$

  *****  SOME NATIONAL WEATHER *****

CITY           SKY/WX    TMP DP  RH WIND       PRES   REMARKS
LA GUARDIA NY  PTSUNNY   84  66  54 S14       30.11F
RALEIGH NC     CLOUDY    71  69  93 N7        30.09S
ATLANTA GA     PTSUNNY   86  59  39 N9        30.12F
NEW ORLEANS LA PTSUNNY   85  72  65 N8        30.13S HX  91
OKLAHOMA CITY  MOSUNNY   83  59  44 VRB7      30.15S
ALBUQUERQUE NM MOSUNNY   76  12   8 S14G20    30.18F
SALT LAKE CITY MOSUNNY   72  41  32 VRB3      30.09F
LOS ANGELES CA PTSUNNY   65  53  65 SW7       30.02S
BOISE ID       SUNNY     72  32  23 E10       30.02F
SEATTLE WA     CLOUDY    57  50  77 SW7       30.13R
$$

*** WEATHER ACROSS MANITOBA...SASKATCHEWAN AND ONTARIO ***
                ***ONTARIO***

CITY           SKY/WX    TMP DP  RH WIND       PRES   REMARKS
GERALDTON      DRZL/FOG  57  57 100 NE3       29.74F VSB 1/2
THUNDER BAY    LGT RAIN  57  55  94 E7        29.74F FOG
SIOUX LOOKOUT  DRIZZLE   57  52  82 CALM      29.79S
TORONTO        PTSUNNY   86  64  48 SW15G23   30.01S
BIG TROUT LK   LGT RAIN  46  45  93 NE6       29.97F
PICKLE LAKE    LGT RAIN  48  45  87 NE9       29.81F
DRYDEN         CLOUDY    55  54  94 W7        29.80
KENORA         CLOUDY    55  52  88 NW10      29.85S
$$
                *** MANITOBA***

CITY           SKY/WX    TMP DP  RH WIND       PRES   REMARKS
BRANDON        PTSUNNY   63  55  77 W10       29.93S
DAUPHIN        PTSUNNY   59  54  82 CALM      29.91F
ISLAND LAKE    LGT RAIN  52  50  93 NE7       29.95S
PILOT MOUND      N/A     61  55  82 NW9         N/A
THE PAS        CLOUDY    48  45  87 N3        29.95S
THOMPSON       DRIZZLE   48  46  93 E6        29.99S
WINNIPEG       PTSUNNY   61  55  82 NW14      29.90S
LYNN LAKE      CLOUDY    46  45  93 E8        29.99F
CHURCHILL      PTSUNNY   30  28  93 E14       30.22S WCI  20
GILLAM         CLOUDY    45  39  81 NE9G18    30.06F
$$
                ***SASKATCHEWAN***

CITY           SKY/WX    TMP DP  RH WIND       PRES   REMARKS
ESTEVAN        MOSUNNY   66  46  48 SW9G20    29.96F
KINDERSLEY     MOSUNNY   61  48  63 CALM      29.87F
LLOYDMINSTER   PTSUNNY   57  48  72 NE5       29.87F
PRINCE ALBERT  DRIZZLE   52  50  93 E12       29.88S
REGINA         MOSUNNY   64  50  59 W10       29.94R
YORKTON        PTSUNNY   63  48  59 W9        29.90S  C1F1C2F2C3F3C4F4C5F5C6F6C7F7C8F8C9F9CaFaCbFbCcFcCdFdCe!



USA.gov is the U.S. government's official web portal to all federal, state and local government web resources and services.